[[{"header":{"parameterUnit":"m.s-1","parameterCategory":1,"la1":30.2991,"la2":30.254,"lo1":-89.0895,"lo2":-89.0444,"dy":0.0017,"dx":0.0017,"nx":28,"ny":28,"refTime":"2025-05-14T21:00:00:Z","depth":0,"parameterNumber":2,"parameterNumberName":"U-component_of_WINDS"},"data":[0,0,0,0,0,0,0,0,0,0,0,0,0,0,0,0,0,0,0,0,0,0,0,0,0,0,0,0,0,0,0,0,0,0,0,0,0,0,0,0,0,0,0,0,0,0,0,0,0,0,0,0,0,0,0,0,0,0,0.4802,0.4802,0,0.4728,0.4727,0.4727,0.4652,0.4651,0.465,0.4649,0.4575,0.4574,0.4573,0,0,0,0,0,0,0,0,0,0,0,0,0,0.4878,0.4878,0.4803,0.4802,0.4801,0.4728,0.4727,0.4726,0.4652,0.4651,0.465,0.4649,0.4575,0.4574,0.4573,0,0,0,0,0,0,0,0,0,0,0,0,0,0.4829,0.4877,0.4803,0.4755,0.475,0.4729,0.4727,0.4726,0.4653,0.4651,0.465,0.4648,0.4576,0.4574,0.4572,0.4593,0,0,0.4568,0.4567,0,0,0,0,0,0,0,0,0.4832,0.4826,0.4763,0.4758,0.4753,0.4698,0.4727,0.4682,0.4653,0.469,0.4649,0.4647,0.4617,0.4612,0.4601,0.4589,0.4586,0.4568,0.4567,0.4566,0.4565,0,0,0,0,0,0,0,0.4836,0.4829,0.4773,0.4762,0.4756,0.4737,0.4728,0.4718,0.4663,0.4686,0.4681,0.4673,0.4614,0.4603,0.4599,0.4585,0.4568,0.4566,0.4565,0.4565,0.4582,0.4583,0,0,0,0,0,0,0.4846,0.4833,0.4775,0.4771,0.4789,0.4737,0.4727,0.4717,0.4663,0.4653,0.4674,0.467,0.4607,0.4601,0.4596,0.4613,0.4566,0.4564,0.4564,0.458,0.4582,0.4583,0,0,0,0,0,0,0.4848,0.4842,0.4778,0.48,0.4791,0.4737,0.4726,0.4716,0.4705,0.4653,0.4643,0.4673,0.4605,0.4598,0.4593,0.461,0.4564,0.4562,0.4579,0.4581,0.4583,0.465,0,0,0,0,0,0,0.4851,0.4843,0.4851,0.4801,0.479,0.4777,0.4727,0.4716,0.4703,0.4696,0.465,0.4641,0.4603,0.4596,0.4592,0.4607,0.4561,0.4577,0.4579,0.4582,0.4646,0.4655,0.4662,0,0,0,0,0,0.4854,0.4874,0.4852,0.4845,0.4798,0.4779,0.4772,0.4728,0.4704,0.4711,0.4677,0.4642,0.4609,0.4596,0.4591,0.4606,0.4575,0.4579,0.4582,0.4643,0.4653,0.4661,0,0,0,0,0,0,0.4929,0.4867,0.4841,0.4846,0.4818,0.4766,0.4773,0.4741,0.4719,0.4714,0.4661,0.4651,0.4651,0.4628,0.4615,0.462,0.4587,0.4589,0.4636,0.4645,0.4652,0.4657,0.456,0,0,0,0,0,0.4945,0.4935,0.4881,0.489,0.4877,0.4828,0.4818,0.4786,0.4755,0.4743,0.4709,0.468,0.4662,0.4653,0.4634,0.4643,0.463,0.465,0.4658,0.4664,0.4667,0.4666,0.4674,0.4594,0.4594,0.4594,0,0,0.4981,0.4945,0.4942,0.4904,0.4879,0.4868,0.4819,0.481,0.4801,0.4742,0.4734,0.4708,0.4672,0.4673,0.4672,0.4653,0.4686,0.4668,0.4674,0.4672,0.467,0.4678,0.4685,0.4596,0.4595,0.4595,0,0,0.5038,0.5012,0.5015,0.499,0.4951,0.4917,0.4918,0.487,0.485,0.4841,0.4796,0.4784,0.4756,0.4731,0.4715,0.476,0.4726,0.4756,0.4795,0.4795,0.4802,0.4807,0.4821,0.4826,0.4758,0.4759,0.4759,0,0.5087,0.5069,0.5021,0.5014,0.4998,0.4942,0.4944,0.4922,0.488,0.487,0.485,0.4811,0.4783,0.4776,0.4786,0.4776,0.4774,0.4761,0.4805,0.4809,0.4814,0.4826,0.4832,0.4762,0.4762,0.4761,0.4761,0,0.5129,0.5117,0.5124,0.5083,0.5068,0.5066,0.5016,0.5006,0.4975,0.4943,0.4933,0.4897,0.4869,0.4865,0.4836,0.4853,0.4842,0.4815,0.478,0.4826,0.4836,0.4841,0.4767,0.4766,0.4765,0.4764,0,0,0.5233,0.5163,0.5167,0.5146,0.5098,0.5087,0.5081,0.5053,0.5044,0.5016,0.5009,0.4985,0.4957,0.4939,0.4906,0.4906,0.4941,0.4878,0.4876,0.4889,0.4954,0.4974,0.4981,0.4918,0.4919,0.4919,0.4956,0,0.5281,0.5267,0.5222,0.5222,0.5208,0.5154,0.5148,0.5118,0.5087,0.5071,0.5037,0.502,0.4987,0.4975,0.4973,0.4937,0.4953,0.4934,0.4909,0.4909,0.4918,0.4987,0.5009,0.5045,0.496,0.4961,0.4962,0,0.5336,0.531,0.5307,0.5257,0.5249,0.5245,0.5213,0.5199,0.5162,0.514,0.5118,0.508,0.5069,0.5038,0.5021,0.5009,0.4996,0.4977,0.4977,0.4972,0.4937,0.4982,0.5056,0.5061,0.4968,0.4968,0.4967,0,0.5409,0.5373,0.5366,0.535,0.5292,0.529,0.5266,0.5227,0.5212,0.5184,0.5173,0.5145,0.5129,0.5108,0.5063,0.5044,0.505,0.5015,0.503,0.5031,0.5033,0.5033,0.5104,0.5028,0.5027,0.5027,0.5027,0,0.5466,0.5467,0.5398,0.5393,0.5391,0.5339,0.5338,0.5308,0.5274,0.5262,0.5214,0.5204,0.5146,0.5128,0.5093,0.5083,0.5077,0.5057,0.5047,0.506,0.5063,0.505,0.5046,0.5029,0.5028,0.5028,0.5028,0,0.5548,0.5502,0.549,0.5435,0.5421,0.5421,0.5374,0.5367,0.5332,0.5317,0.5311,0.5257,0.5234,0.5187,0.5151,0.5127,0.5124,0.5108,0.5136,0.513,0.5146,0.5145,0.5211,0.5216,0.5138,0.5139,0.514,0,0.5587,0.5585,0.5529,0.5517,0.5494,0.5476,0.5459,0.5407,0.5392,0.5348,0.5346,0.5318,0.5293,0.5258,0.5215,0.5187,0.5169,0.5194,0.5164,0.5176,0.5166,0.5166,0.5165,0.52,0.5202,0.5202,0.5203,0,0.566,0.5636,0.5614,0.5583,0.5564,0.5537,0.5508,0.5501,0.5442,0.5427,0.5401,0.5382,0.5344,0.5316,0.5281,0.5255,0.5218,0.5213,0.5214,0.5227,0.5242,0.5231,0.5152,0.5211,0.5211,0.521,0.5209,0.5209,0.5719,0.5714,0.5673,0.5649,0.5621,0.5594,0.5583,0.5547,0.5525,0.5489,0.546,0.5437,0.5397,0.5346,0.5321,0.5302,0.5284,0.5287,0.5288,0.5289,0.5293,0.5246,0.5295,0.5295,0.5295,0.5294,0.5294,0,0.5787,0.5758,0.5736,0.5696,0.5676,0.5643,0.5608,0.5594,0.5574,0.554,0.5516,0.5485,0.5458,0.5412,0.538,0.5373,0.5355,0.5366,0.5365,0.5359,0.5311,0.5312,0.5381,0.5381,0.5381,0.5381,0.5381,0.5381,0.5821,0.5809,0.5781,0.5754,0.5724,0.57,0.5683,0.5657,0.5629,0.5597,0.5574,0.5544,0.5504,0.5469,0.5441,0.5428,0.5418,0.5434,0.5416,0.5371,0.5363,0.5356,0.5356,0.5433,0.5433,0.5465,0.5465,0.5465]},{"header":{"parameterUnit":"m.s-1","parameterCategory":1,"la1":30.2991,"la2":30.254,"lo1":-89.0895,"lo2":-89.0444,"dy":0.0017,"dx":0.0017,"nx":28,"ny":28,"refTime":"2025-05-14T21:00:00:Z","depth":0,"parameterNumber":3,"parameterNumberName":"V-component_of_WINDS"},"data":[0,0,0,0,0,0,0,0,0,0,0,0,0,0,0,0,0,0,0,0,0,0,0,0,0,0,0,0,0,0,0,0,0,0,0,0,0,0,0,0,0,0,0,0,0,0,0,0,0,0,0,0,0,0,0,0,0,0,5.8541,5.8541,0,5.851,5.851,5.851,5.8418,5.8416,5.8414,5.8412,5.8382,5.8383,5.8384,0,0,0,0,0,0,0,0,0,0,0,0,0,5.8523,5.8524,5.8541,5.8541,5.8541,5.851,5.851,5.8509,5.8418,5.8416,5.8413,5.8411,5.8382,5.8383,5.8385,0,0,0,0,0,0,0,0,0,0,0,0,0,5.8516,5.8525,5.8541,5.8491,5.8486,5.851,5.851,5.8509,5.8419,5.8416,5.8413,5.841,5.8382,5.8383,5.8385,5.8455,0,0,5.839,5.839,0,0,0,0,0,0,0,0,5.8516,5.8517,5.8499,5.8495,5.8489,5.8465,5.8493,5.8491,5.8419,5.8444,5.8412,5.8408,5.8412,5.8411,5.8412,5.8454,5.8453,5.839,5.8391,5.8392,5.8392,0,0,0,0,0,0,0,5.8517,5.8517,5.8529,5.8499,5.8493,5.8471,5.8467,5.8492,5.8446,5.8442,5.8435,5.8433,5.8409,5.8411,5.8411,5.8452,5.839,5.8391,5.8392,5.8393,5.8551,5.8554,0,0,0,0,0,0,5.8524,5.8519,5.853,5.8528,5.8496,5.8474,5.8469,5.8476,5.8445,5.8438,5.8435,5.8429,5.8409,5.8409,5.8409,5.849,5.8392,5.8393,5.8394,5.8548,5.8552,5.8555,0,0,0,0,0,0,5.8524,5.8526,5.8531,5.8521,5.852,5.8477,5.8486,5.8477,5.8478,5.844,5.8432,5.8445,5.8407,5.8407,5.8444,5.8487,5.8394,5.8395,5.8544,5.8549,5.8553,5.8651,0,0,0,0,0,0,5.8524,5.8527,5.8553,5.8523,5.8521,5.8566,5.8488,5.8478,5.8481,5.8472,5.8447,5.844,5.8405,5.8443,5.8446,5.8488,5.8397,5.854,5.8546,5.8552,5.8644,5.8659,5.8672,0,0,0,0,0,5.8524,5.8582,5.8554,5.8556,5.8553,5.8569,5.8568,5.8525,5.8485,5.8511,5.8486,5.8441,5.8483,5.8447,5.845,5.8493,5.8537,5.8544,5.8551,5.8638,5.8656,5.8671,0,0,0,0,0,0,5.8619,5.8577,5.8546,5.8596,5.8587,5.8554,5.8585,5.8546,5.8548,5.854,5.8487,5.8483,5.8527,5.8514,5.8476,5.856,5.8502,5.851,5.8567,5.8584,5.8597,5.8599,5.8398,0,0,0,0,0,5.8646,5.8662,5.8625,5.8673,5.8669,5.8628,5.8634,5.8602,5.859,5.8586,5.8564,5.8556,5.8566,5.8574,5.8582,5.8642,5.8636,5.8674,5.8687,5.8699,5.8706,5.8737,5.8753,5.8579,5.8579,5.8578,0,0,5.8701,5.868,5.8694,5.8691,5.868,5.8698,5.8625,5.8648,5.8661,5.8589,5.8623,5.8607,5.8594,5.8643,5.8663,5.8633,5.8753,5.8708,5.8717,5.8718,5.8746,5.8762,5.8777,5.8584,5.8583,5.8582,0,0,5.8811,5.8797,5.8835,5.8825,5.8809,5.8782,5.8791,5.8764,5.875,5.8783,5.8729,5.8745,5.8765,5.8758,5.8757,5.8865,5.8823,5.8869,5.8941,5.8971,5.8985,5.8997,5.9035,5.9049,5.8877,5.8877,5.8878,0,5.8882,5.8906,5.8859,5.8885,5.8886,5.8821,5.886,5.8853,5.8841,5.8843,5.881,5.8833,5.882,5.8866,5.8893,5.8894,5.8903,5.8871,5.8987,5.8998,5.9009,5.9044,5.9059,5.8883,5.8882,5.8882,5.8881,0,5.8994,5.9012,5.9045,5.9034,5.9039,5.9071,5.903,5.904,5.9008,5.8984,5.9019,5.9001,5.9004,5.9013,5.8982,5.9055,5.9036,5.8996,5.8936,5.9032,5.9064,5.9078,5.8891,5.8889,5.8887,5.8886,0,0,5.9162,5.9125,5.9137,5.9132,5.911,5.9123,5.9153,5.9155,5.9165,5.916,5.9183,5.9202,5.9164,5.9163,5.9131,5.9158,5.9245,5.9114,5.9113,5.9139,5.9324,5.9354,5.937,5.9218,5.922,5.9222,5.9325,0,5.9265,5.9312,5.9271,5.9327,5.9343,5.9283,5.9309,5.9299,5.9278,5.9289,5.9266,5.928,5.923,5.9229,5.9253,5.9229,5.9281,5.9222,5.9239,5.9241,5.9243,5.9388,5.9419,5.9517,5.9337,5.9339,5.9341,0,5.9391,5.939,5.9447,5.9422,5.9427,5.9451,5.945,5.9462,5.945,5.9433,5.9432,5.9393,5.9421,5.9364,5.9402,5.9362,5.9368,5.9358,5.936,5.9359,5.9296,5.939,5.9547,5.9561,5.9361,5.9359,5.9358,0,5.9506,5.952,5.9556,5.9553,5.9524,5.9543,5.9532,5.9516,5.9521,5.952,5.9523,5.9526,5.9528,5.9532,5.9495,5.9457,5.9538,5.9478,5.9525,5.9526,5.9544,5.9543,5.9703,5.9549,5.9549,5.9549,5.9548,0,5.9625,5.9662,5.9607,5.9629,5.9669,5.9622,5.9664,5.9647,5.9634,5.9652,5.9601,5.9619,5.957,5.9583,5.9555,5.9591,5.9592,5.958,5.9571,5.9584,5.9585,5.9585,5.9577,5.9553,5.9552,5.9551,5.955,0,5.976,5.9725,5.976,5.973,5.9723,5.9754,5.9729,5.9748,5.9725,5.9748,5.9751,5.9714,5.9727,5.9691,5.9699,5.968,5.9732,5.9713,5.9736,5.973,5.9778,5.9774,5.9943,5.9963,5.9798,5.98,5.9801,0,5.9838,5.9865,5.9838,5.9846,5.9838,5.9851,5.9855,5.9811,5.9817,5.9806,5.9827,5.9836,5.984,5.9865,5.9839,5.9845,5.9826,5.9885,5.9826,5.9837,5.9826,5.9824,5.9826,5.9896,5.9898,5.99,5.9901,0,5.9979,5.996,5.9967,5.9969,5.9974,5.9974,5.9969,5.9979,5.9932,5.9942,5.9954,5.9958,5.9966,5.9976,5.9976,5.9966,5.9926,5.992,5.9931,5.9943,5.9955,5.9949,5.9768,5.9916,5.9915,5.9914,5.9913,5.9912,6.0086,6.0108,6.0092,6.0102,6.0094,6.0091,6.0108,6.0086,6.0096,6.0098,6.0072,6.009,6.0078,6.0074,6.0068,6.0082,6.0055,6.0072,6.0075,6.008,6.0088,5.9954,6.0082,6.0082,6.0081,6.0081,6.0081,0,6.0224,6.0211,6.0221,6.0216,6.0224,6.0186,6.0179,6.0189,6.0205,6.0197,6.0202,6.0217,6.0227,6.0202,6.0208,6.0224,6.0206,6.0227,6.0225,6.0223,6.0112,6.0101,6.0241,6.0241,6.0241,6.0241,6.0241,6.0241,6.0296,6.033,6.031,6.0339,6.0326,6.0343,6.0343,6.034,6.0333,6.0352,6.0359,6.0343,6.0328,6.0333,6.034,6.0332,6.0337,6.0364,6.035,6.0247,6.0231,6.0216,6.0206,6.0365,6.0366,6.046,6.0461,6.0462]}]]